Orbital Elements at Epoch 2459000.5 (2020-May-31.0) TDB
Reference: JPL 1 (heliocentric ecliptic J2000)
Element | Value | Uncertainty (1-sigma) | Units |
e | .3262190168391559 | 0.00033293 | |
a | 1.507501258849279 | 0.00076836 | au |
q | 1.015725680303677 | 1.683e-05 | au |
i | .9199020168824686 | 0.00085954 | deg |
node | 336.3116917175248 | 0.010121 | deg |
peri | 207.6427065398636 | 0.01818 | deg |
M | 36.24932143771692 | 0.029979 | deg |
tp | 2458932.425833490818 (2020-Mar-23.92583349) | 0.0073967 | TDB |
period | 676.0595501190966 1.85 | 0.51687 0.001415 | d yr |
n | .532497469988526 | 0.00040712 | deg/d |
Q | 1.99927683739488 | 0.001019 | au |
|
| | Orbit Determination Parameters
Additional Information
|